Weather History for KTMB - November, 2013

Change the Weather History Date:

Monday, November 11, 2013

  Actual Average (KMIA) Record (KMIA)
Temperature  
Mean Temperature 78 °F 76 °F  
Max Temperature 84 °F 82 °F 89 °F (2002)
Min Temperature 71 °F 69 °F 48 °F (1913)
Degree Days  
Heating Degree Days 0 0  
Month to date heating degree days 0  
Since 1 July heating degree days 0  
Cooling Degree Days 12 11  
Month to date cooling degree days 126  
Year to date cooling degree days 4198  
Growing Degree Days 28 (Base 50)    
Moisture  
Dew Point 70 °F    
Average Humidity 78    
Maximum Humidity 93    
Minimum Humidity 61    
Precipitation  
Precipitation 0.00 in 0.12 in 2.27 in (1967)
Month to date precipitation 1.44  
Year to date precipitation 58.03  
Snow  
Snow 0.00 in - - ()
Month to date snowfall  
Since 1 July snowfall  
Since 1 September snowfall  
Snow Depth -    
Sea Level Pressure  
Sea Level Pressure 30.07 in    
Wind  
Wind Speed 7 mph (ENE)    
Max Wind Speed 18 mph    
Max Gust Speed 22 mph    
Visibility 10 miles    
Events      
T = Trace of Precipitation, MM = Missing Value Source: NWS Daily Summary

Daily Weather History Graph

Daily Weather History Graph

Search for Another Location

Airport or City:

Trip Planner

Search our weather history database for the weather conditions in past years. The results will help you decide how hot, cold, wet, or windy it might be!

Date:

Astronomy

Nov. 11, 2013 Rise Set
Actual Time 6:36 AM EST 5:34 PM EST
Civil Twilight 6:12 AM EST 5:58 PM EST
Nautical Twilight 5:45 AM EST 6:26 PM EST
Astronomical Twilight 5:17 AM EST 6:53 PM EST
Moon 1:42 PM EST (11/11) 12:55 AM EST (11/11)
Length of Visible Light 11h 46m
Length of Day
10h 57m
Waxing Gibbous, 66% of the Moon is Illuminated
Nov 11
Waxing Gibbous
Nov 17
Full
Nov 25
Last Quarter
Dec 2
New
Dec 9
First Quarter

Hourly Weather History & Observations

Time (EST) Temp. Heat Index Dew Point Humidity Pressure Visibility Wind Dir Wind Speed Gust Speed Precip Events Conditions
12:53 AM 71.1 °F - 69.1 °F 93% 30.07 in 10.0 mi Calm Calm - N/A   Clear
1:53 AM 72.0 °F - 69.1 °F 91% 30.06 in 10.0 mi North 5.8 mph - N/A   Clear
2:53 AM 72.0 °F - 69.1 °F 91% 30.05 in 10.0 mi North 4.6 mph - N/A   Clear
3:53 AM 72.0 °F - 70.0 °F 93% 30.05 in 10.0 mi North 5.8 mph - N/A   Clear
4:53 AM 71.1 °F - 69.1 °F 93% 30.05 in 10.0 mi North 5.8 mph - N/A   Clear
5:53 AM 72.0 °F - 70.0 °F 93% 30.06 in 10.0 mi North 5.8 mph - N/A   Partly Cloudy
6:53 AM 72.0 °F - 70.0 °F 93% 30.07 in 10.0 mi North 8.1 mph - N/A   Clear
7:53 AM 75.0 °F - 70.0 °F 84% 30.09 in 10.0 mi NNE 4.6 mph - N/A   Clear
8:53 AM 80.1 °F 83.6 °F 71.1 °F 74% 30.10 in 10.0 mi NE 6.9 mph - N/A   Clear
9:17 AM 80.6 °F 84.6 °F 71.6 °F 74% 30.11 in 10.0 mi NE 9.2 mph - N/A   Mostly Cloudy
9:53 AM 84.0 °F 89.0 °F 71.1 °F 65% 30.11 in 10.0 mi East 17.3 mph 21.9 mph N/A   Scattered Clouds
10:53 AM 84.0 °F 89.0 °F 71.1 °F 65% 30.11 in 10.0 mi ENE 12.7 mph - N/A   Partly Cloudy
11:53 AM 84.9 °F 89.4 °F 70.0 °F 61% 30.09 in 10.0 mi East 18.4 mph 21.9 mph N/A   Partly Cloudy
12:53 PM 82.9 °F 86.5 °F 69.1 °F 63% 30.06 in 10.0 mi ENE 15.0 mph - N/A   Overcast
1:53 PM 84.0 °F 89.0 °F 71.1 °F 65% 30.06 in 10.0 mi East 15.0 mph - N/A   Scattered Clouds
2:53 PM 82.0 °F 85.5 °F 69.1 °F 65% 30.04 in 10.0 mi East 13.8 mph - N/A   Mostly Cloudy
3:32 PM 80.6 °F 83.9 °F 69.8 °F 70% 30.04 in 10.0 mi East 15.0 mph - N/A   Mostly Cloudy
3:43 PM 80.6 °F 83.9 °F 69.8 °F 70% 30.05 in 10.0 mi East 15.0 mph - N/A   Scattered Clouds
3:53 PM 81.0 °F 84.4 °F 70.0 °F 69% 30.05 in 10.0 mi East 13.8 mph - N/A   Mostly Cloudy
4:08 PM 80.6 °F 83.9 °F 69.8 °F 70% 30.05 in 10.0 mi East 11.5 mph - N/A   Mostly Cloudy
4:53 PM 80.1 °F 83.2 °F 70.0 °F 71% 30.05 in 10.0 mi East 12.7 mph - N/A   Partly Cloudy
5:53 PM 78.1 °F - 69.1 °F 74% 30.05 in 10.0 mi East 8.1 mph - N/A   Clear
6:53 PM 77.0 °F - 70.0 °F 79% 30.06 in 10.0 mi East 8.1 mph - N/A   Mostly Cloudy
7:24 PM 77.0 °F - 69.8 °F 78% 30.06 in 10.0 mi ENE 6.9 mph - N/A   Scattered Clouds
7:53 PM 77.0 °F - 69.1 °F 76% 30.06 in 10.0 mi ENE 8.1 mph - N/A   Clear
8:53 PM 75.0 °F - 69.1 °F 82% 30.07 in 10.0 mi East 6.9 mph - N/A   Clear
9:53 PM 73.0 °F - 68.0 °F 84% 30.08 in 10.0 mi East 4.6 mph - N/A   Clear
10:53 PM 73.0 °F - 68.0 °F 84% 30.08 in 10.0 mi Calm Calm - N/A   Clear
11:53 PM 72.0 °F - 68.0 °F 87% 30.06 in 10.0 mi Calm Calm - N/A   Partly Cloudy